Weather Roundup
Issued by NWS

Home | Current Version | Previous Version | Text Only | Print | Product List | Glossary On
Versions: 1 2 3 4 5 6 7 8 9 10 11 12 13 14 15 16 17 18 19 20 21 22 23 24 25 26 27 28 29 30 31 32 33 34 35 36 37 38 39 40 41 42 43 44 45 46 47 48 49 50
000
NZUS93 KARX 282059
HRRWXR

CURRENT HOURLY OBSERVATIONS ACROSS
MUCH OF THE UPPER MISSISSIPPI VALLEY
NATIONAL WEATHER SERVICE LA CROSSE WI
400 PM CDT SAT MAR 28 2015


...SOUTHEAST MINNESOTA...


CITY           SKY/WX    TMP DP  RH WIND       PRES   REMARKS
ROCHESTER      SUNNY     34  20  56 S13       30.18F WCI  25
ROCHESTER/MAYO FAIR      36  18  47 SE10G18   30.18F WCI  29
WINONA         SUNNY     41  14  33 S9        30.22F
AUSTIN         SUNNY     39  21  48 SE8       30.15F WCI  34
ALBERT LEA     SUNNY     45  21  39 S13       30.13F
DODGE CENTER   SUNNY     36  25  64 SE15      30.16F WCI  26
PRESTON        SUNNY     35  18  50 S12       30.19F WCI  27
OWATONNA       SUNNY     39  25  56 SE14      30.14F WCI  31
FARIBAULT      SUNNY     39  25  56 SE14      30.15F WCI  31
$$

...ELSEWHERE IN MINNESOTA...


CITY           SKY/WX    TMP DP  RH WIND       PRES   REMARKS
MINNEAPOLIS    MOSUNNY   40  20  44 S15G23    30.15F WCI  32
INTNL FALLS    NOT AVBL
DULUTH         NOT AVBL
RED WING       SUNNY     41  12  30 SW14G20   30.17F
REDWOOD FALLS  PTSUNNY   47  28  47 S17G31    30.05F
MANKATO        SUNNY     43  21  42 S15       30.12F
WORTHINGTON    MOSUNNY   45  28  53 SE18G25   30.05F
FAIRMONT       SUNNY     45  21  39 S22G29    30.08F
$$

...SOUTHWEST WISCONSIN...


CITY           SKY/WX    TMP DP  RH WIND       PRES   REMARKS
LA CROSSE      SUNNY     43  11  27 S9        30.22F
PRAIRIE DU CHI SUNNY     39  10  30 SE7       30.25F WCI  34
BOSCOBEL       SUNNY     40  14  34 S10G16    30.26F WCI  33
LONE ROCK      NOT AVBL
PLATTEVILLE    SUNNY     39  12  33 S5        30.25F
FORT MC COY    SUNNY     40   8  26 S12       30.23F WCI  33
CAMP DOUGLAS   SUNNY     41   9  26 SW13      30.20F
VIROQUA        FAIR      37  13  38 S7        30.22F WCI  31
WIS DELLS      NOT AVBL
$$

...ELSEWHERE IN WISCONSIN...


CITY           SKY/WX    TMP DP  RH WIND       PRES   REMARKS
MILWAUKEE      MOSUNNY   34  10  37 SE14      30.29F WCI  25
MADISON        SUNNY     37   9  31 SW8       30.26F WCI  31
GREEN BAY      SUNNY     37  19  48 SW10G18   30.24F WCI  30
EAU CLAIRE     NOT AVBL
BLACK RVR FLS  FAIR      42   7  23 S7        30.20F
MEDFORD        SUNNY     36  14  41 SW10      30.16F WCI  28
WAUSAU         SUNNY     39   9  29 SW12      30.16F WCI  32
WIS RAPIDS     SUNNY     41   3  20 SW12      30.21F
MARSHFIELD     SUNNY     42   8  24 S13       30.17F
RICE LAKE      SUNNY     42   8  25 S13       30.16F
$$

...NORTHEAST IOWA...


CITY           SKY/WX    TMP DP  RH WIND       PRES   REMARKS
DECORAH        SUNNY     36  16  44 VRB6G13   30.21F WCI  31
MASON CITY     SUNNY     45  21  38 S15G24    30.16F
CHARLES CITY   SUNNY     43  18  36 SE13G21   30.19F
OELWEIN        SUNNY     41  16  36 S9G17     30.21F
$$

...ELSEWHERE IN IOWA...


CITY           SKY/WX    TMP DP  RH WIND       PRES   REMARKS
DES MOINES     MOSUNNY   49  15  25 SE12G18   30.16F
IOWA CITY      SUNNY     43  11  27 SE10G16   30.26F
FORT DODGE     SUNNY     48  19  32 SE14G20   30.12F
$$

...NORTHERN ILLINOIS...


CITY           SKY/WX    TMP DP  RH WIND       PRES   REMARKS
CHICAGO-OHARE  SUNNY     36   7  29 E7        30.30F WCI  30
CHICAGO-MIDWAY SUNNY     35   4  27 CALM      30.32S
MOLINE         SUNNY     41   9  26 E6G20     30.27F
ROCKFORD       SUNNY     39  11  31 W8        30.30F WCI  33
PEORIA         SUNNY     41  12  30 SW3       30.29F
$$

NOTE: "FAIR" INDICATES FEW OR NO CLOUDS BELOW 12,000 FEET WITH NO
SIGNIFICANT WEATHER AND/OR OBSTRUCTIONS TO VISIBILITY. WIND
SPEEDS ARE IN MILES-PER-HOUR.



USA.gov is the U.S. government's official web portal to all federal, state and local government web resources and services.